Regional Weather Roundup
Issued by NWS

Home | Current Version | Previous Version | Text Only | Print | Product List | Glossary Off
Versions: 1 2 3 4 5 6 7 8 9 10 11 12 13 14 15 16 17 18 19 20 21 22 23 24 25 26 27 28 29 30 31 32 33 34 35 36 37 38 39 40 41 42 43 44 45 46 47 48 49 50

000
ASUS45 KBOU 231307
RWRCO

WEATHER ROUNDUP FOR COLORADO
NATIONAL WEATHER SERVICE DENVER/BOULDER CO
600 AM MST SUN NOV 23 2014

NOTE: "FAIR" INDICATES FEW OR NO CLOUDS BELOW 12000 FEET WITH NO
SIGNIFICANT WEATHER AND/OR OBSTRUCTIONS TO VISIBILITY.

COZ001>005-013-030-031-231400-
...NORTHWEST COLORADO...

CITY           SKY/WX    TMP DP  RH WIND       PRES   REMARKS
CRAIG          CLOUDY    24  19  81 SW8       29.87R WCI  15
HAYDEN         MOCLDY    25  18  74 NW6       29.85R WCI  18
MEEKER         MOCLDY    23  18  81 E5        29.86R WCI  17
MOUNT WERNER   NOT AVBL
STEAMBOAT SPGS CLOUDY    25  23  91 CALM      29.83R
WALDEN         PTCLDY    18  12  79 N6        29.78R WCI   9
$$

COZ006>008-011-231400-
...WEST CENTRAL VALLEYS...

CITY           SKY/WX    TMP DP  RH WIND       PRES   REMARKS
GRAND JUNCTION MOCLDY    30  30 100 E3        29.87R
MONTROSE       PTCLDY    32  31  96 W5        29.86R WCI  27
EAGLE          CLOUDY    30  28  93 CALM      29.83R
RIFLE          PTCLDY    27  24  89 SW6       29.86R WCI  20
DELTA          PTCLDY    36  31  81 SW21G26   29.81F
NUCLA          PTCLDY    34  27  75 NW6       29.91R WCI  29
$$

COZ017>023-064>068-231400-
...SOUTHWEST COLORADO...

CITY           SKY/WX    TMP DP  RH WIND       PRES   REMARKS
DURANGO        MOCLDY    32  24  72 W16       29.75S WCI  21
CORTEZ         CLOUDY    37  27  67 NW15G24   29.87R
PAGOSA SPRINGS CLOUDY    31  30  98 CALM      29.75R
TELLURIDE      FLURRIES  25  20  82 W16G25    29.84R WCI  12
WOLF CREEK PAS CLOUDY    14  12  92 W8G16     29.74F WCI   3
$$

COZ009-010-012-014-032>034-037-058>063-231400-
...CENTRAL COLORADO...

CITY           SKY/WX    TMP DP  RH WIND       PRES   REMARKS
ASPEN          LGT SNOW  25  21  85 W7        29.79R VSB 3/4 WCI  17
BUENA VISTA    CLOUDY    29  20  71 NW24G32   29.72R WCI  14
COPPER MTN     CLOUDY    16  10  79 W21G32    29.72R WCI  -2
BERTHOUD PASS  CLOUDY     5   1  85 N10G30    29.70R WCI -10
COTTONWOOD PAS LGT SNOW  27  21  80 CALM      29.72R VSB 1
GUNNISON       MOCLDY    27  19  74 SW12      29.77R WCI  16
KREMMLING      MOCLDY    28  19  69 NW7       29.81R WCI  21
LEADVILLE      CLOUDY    17  12  80 N15G23    29.73R WCI   2
MONARCH PASS   CLOUDY    14  12  92 MISG      29.79S
SALIDA         MOCLDY    32  26  77 NW10      29.78R WCI  24
SUNLIGHT       CLOUDY    18  14  86 NW10G18   29.80R WCI   6
WILKERSON PASS CLOUDY    18  10  73 N8G21     29.71R WCI   7
$$

COZ069>075-231400-
...SAN LUIS VALLEY/SANGRE DE CRISTO MOUNTAINS...

CITY           SKY/WX    TMP DP  RH WIND       PRES   REMARKS
ALAMOSA        CLOUDY    28  25  88 W9        29.72F WCI  19
LA VETA PASS   CLOUDY    23  19  86 S9G17     29.70R WCI  13
SAGUACHE       CLOUDY    30  21  69 NW25G35   29.68S WCI  16
$$

COZ035-036-038>040-231400-
...NORTHERN COLORADO FRONT RANGE...

CITY           SKY/WX    TMP DP  RH WIND       PRES   REMARKS
DENVER INTL AP CLOUDY    34  25  69 E8        29.72R WCI  27
DMNS CITY PARK   N/A     35  21  57 E9        29.73R WCI  28
AURORA         NOT AVBL
FRONT RANGE AP CLOUDY    34  30  86 SE5       29.73R WCI  30
ERIE MUNI ARPT CLOUDY    37  21  52 NE7       29.72R
BOULDER MUN AP CLOUDY    36  27  69 SE9       29.71R
CENTENNIAL     CLOUDY    33  24  69 NE8       29.73R WCI  26
BROOMFIELD     MOCLDY    36  21  55 E8        29.73R
FORT COLLINS   MOCLDY    34  21  60 NE13      29.72S WCI  25
LONGMONT       MOCLDY    38  23  55 SW3       29.73R
$$

COZ041-046-047-076>085-087-088-231400-
...PIKES PEAK/PALMER DIVIDE AND SOUTHERN FOOTHILLS...

CITY           SKY/WX    TMP DP  RH WIND       PRES   REMARKS
COLO. SPRINGS  FLURRIES  32  26  78 N18G28    29.70R WCI  20
A. F. ACADEMY  LGT SNOW  32  27  80 N18G24    29.70R FOG     WCI  20
ELLICOTT       NOT AVBL
FALCON         NOT AVBL
FORT CARSON    LGT RAIN  32  32 100 N18G24    29.69R WCI  20
LIMON          CLOUDY    32  22  66 N23G31    29.70R WCI  19
MONUMENT HILL  FLURRIES  27  25  93 N10G16    29.71R WCI  17
TRINIDAD       CLOUDY    39  28  64 NE23G36   29.65R
$$

COZ042>045-048>051-090-091-231400-
...NORTHEAST COLORADO...

CITY           SKY/WX    TMP DP  RH WIND       PRES   REMARKS
GREELEY ARPT   CLOUDY    34  19  55 N13       29.73R WCI  25
AKRON          CLOUDY    34  19  54 N17       29.70R WCI  23
BURLINGTON     CLOUDY    41  18  39 N26G38    29.63R
WRAY           CLOUDY    42  18  38 NW23G29   29.65R
STERLING       CLOUDY    39  21  48 N13       29.71R
HOLYOKE        CLOUDY    41  19  42 NW20G29   29.66R
FORT MORGAN    CLOUDY    32  19  57 N10       29.73R WCI  24
$$

COZ086-089-092>099-231400-
...SOUTHEAST COLORADO...

CITY           SKY/WX    TMP DP  RH WIND       PRES   REMARKS
PUEBLO         LGT RAIN  39  28  64 N33G39    29.68R
LA JUNTA       MOCLDY    41  30  65 N28G40    29.63R
LAMAR          PTCLDY    44  30  57 N18G28    29.58R
SPRINGFIELD      N/A     43  26  51 N30G39    29.57R
$$


USA.gov is the U.S. government's official web portal to all federal, state and local government web resources and services.